DELTA 1 DEB, 10752

Orbit data source: Space-Track

DELTA 1 DEB, 10752 is space debris in SSO originally from a launch on Thu, 29 Jul 1976 UTC launched from the Air Force Western Test Range (AFWTR). Debris objects in space refer to the collection of defunct objects orbiting the Earth. Examples of debris include non-operational satellites, rocket bodies, and fragments generated from explosions, collisions, or faulty payload assembly.

Loading next visibility...
Identifier
10752, 1976-077AZ
Orbit
SSO
Country
Flag of USUS
Related business
Manufacturer
Unknown
Mission
Spacecraft
Bus & Motor
Unknown
Mass
Unknown
Launch date (UTC)
1976-07-29 (50 years ago)
Launch vehicle
Unknown
Launch site
Air Force Western Test Range (AFWTR)
Object type
Payload
Rocket body
Debris
Shape & HBR
Unknown shape, 0.1 m
Radar Cross Section
Medium (>0.1 m² and <1 m²)

Expand to show TLE details & history
Last TLE update: 4 days ago

TLE from 4 days ago
0 DELTA 1 DEB
1 10752U 76077AZ  26169.72794163  .00000891  00000-0  30656-2 0  9995
2 10752 101.7387  72.5561 0334001 346.3587  33.0141 12.84269379303545
Epoch: 2026-06-18T17:28Z
TLE epoch observation values (Epoch: 2026-06-18T17:28:14.156Z)
Latitude
21.07265°
Longitude
-101.03875°
Altitude
1,113.582 km
Speed
7.398 km/s
True Right ascension
04h 31m 56s
True Declination
20° 57' 47"
Sunlit
Object was in daylight at epoch
Visualization orbit readout
Latitude
Unknown
Longitude
Unknown
Altitude
Unknown
Speed
Unknown
Apparent Right ascension
Unknown
Apparent Declination
Unknown
Sunlit
N/A
Visualization observer readout
Local Sidereal Time
01:06:02
Azimuth
Unknown
Elevation
Unknown
Doppler factor
Unknown
Orbital elements
Apogee altitude
1,579.03 km
Perigee altitude
1,064.669 km
Semi-major axis
7,699.986 km
Eccentricity
0.0334
Inclination
101.7387°
RAAN
72.5561°
Arg. of periapsis
346.3587°
True anomaly
35.17445°
Mean anomaly
33.0141°
Eccentric anomaly
34.08662°
Mean motion
3.21224 °/min
Orbital period
112.07 mins
BSTAR
0.0030656
Loading maneuver chart data...
Computing Atmospheric mass density...
Loading historical data...
Loading historical data...
Loading historical data...
Loading historical data...
Loading historical data...
Loading historical data...
Loading historical data...

Documentation

Showing up to 5 results
|